Regional Weather Roundup
Issued by NWS Cleveland, OH

Home | Current Version | Previous Version | Graphics & Text | Print | Product List | Glossary On
Versions: 1 2 3 4 5 6 7 8 9 10 11 12 13 14 15 16 17 18 19 20 21 22 23 24 25 26 27 28 29 30 31 32 33 34 35 36 37 38 39 40 41 42 43 44 45 46 47 48 49 50
000
ASUS41 KCLE 180310
RWRCLE
OHIO REGIONAL WEATHER ROUNDUP
NATIONAL WEATHER SERVICE CLEVELAND, OH
1000 PM EST SUN DEC 17 2017

NOTE: "FAIR" INDICATES FEW OR NO CLOUDS BELOW 12,000 FEET WITH NO
SIGNIFICANT WEATHER AND/OR OBSTRUCTIONS TO VISIBILITY.

OHZ001>008-015>018-024>027-034-035-043-044-180400-
   NORTHWEST OHIO

CITY           SKY/WX    TMP DP  RH WIND       PRES   REMARKS
DEFIANCE       CLOUDY    38  34  85 S8        30.06S
FINDLAY        CLOUDY    39  33  79 S8        30.06S
TOLEDO EXPRESS CLOUDY    37  37 100 SW9       30.05S
TOLEDO EXEC    CLOUDY    38  35  89 S9        30.06F
LIMA           CLOUDY    38  35  89 S6        30.07F
$$

OHZ009>014-019>023-028>033-038-089-180400-
   NORTHEAST OHIO

CITY           SKY/WX    TMP DP  RH WIND       PRES   REMARKS
CLE-HOPKINS    CLOUDY    38  34  85 S10       30.10S
CLE-LAKEFRONT  CLOUDY    39  32  76 S10       30.07S
CUY CO. ARPT   CLOUDY    39  32  75 SW9       30.08S
LORAIN-ELYRIA  CLOUDY    35  30  82 SW7       30.09R HAZE    WCI  29
ASHTABULA      CLOUDY    36  32  85 SW9       30.08S
AKRON-CANTON   CLOUDY    37  31  78 SW5       30.09R
WOOSTER        CLOUDY    35  32  88 SW6       30.09S
MANSFIELD      CLOUDY    36  34  92 S8        30.08R
YOUNGSTOWN     CLOUDY    36  33  89 S5        30.08F
$$

OHZ042-051>053-060>062-070>072-077>081-180400-
  SOUTHWEST OHIO

CITY           SKY/WX    TMP DP  RH WIND       PRES   REMARKS
CINC-COVINGTON CLOUDY    42  37  82 SW8       30.12S
CINC-LUNKEN    CLOUDY    43  36  76 S12       30.14S
HAMILTON       CLOUDY    44  34  67 SW6       30.13S
DAYTON         CLOUDY    41  34  76 SW9       30.10S
WRIGHT-PAT AFB CLOUDY    40  35  80 S7        30.10S
DAYTON GENERAL CLOUDY    42  32  67 SW7       30.10S
WILMINGTON     CLOUDY    40  35  83 S8        30.11R
$$

OHZ036-037-039>041-045>050-054>059-063>069-073>076-082>088-180400-
  CENTRAL AND SOUTHEAST OHIO

CITY           SKY/WX    TMP DP  RH WIND       PRES   REMARKS
COLUMBUS       CLOUDY    41  33  73 S3        30.11R
OSU AIRPORT    CLOUDY    40  34  79 S3        30.10S
BOLTON FIELD   CLOUDY    37  32  84 SW3       30.11R
RICKENBACK AFB CLOUDY    39  32  75 SW3       30.10S
NEWARK         CLOUDY    35  32  88 CALM      30.10S
MARION         CLOUDY    37  33  85 S8        30.09S
LANCASTER      CLOUDY    40  31  70 S6        30.11S
ZANESVILLE     CLOUDY    38  31  76 CALM      30.11S
NEW PHILLY     NOT AVBL
$$




USA.gov is the U.S. government's official web portal to all federal, state and local government web resources and services.